Weather History for Falfurrias, TX

Change the Weather History Date:

Thursday, December 13, 2012

  Actual Average (KNQI) Record (KNQI)
Temperature  
Mean Temperature 60 °F -  
Max Temperature 71 °F 67 °F 82 °F (2011)
Min Temperature 48 °F 46 °F 28 °F (2010)
Degree Days  
Heating Degree Days 6    
Growing Degree Days 10 (Base 50)    
Moisture  
Dew Point 52 °F    
Average Humidity 70    
Maximum Humidity 86    
Minimum Humidity 55    
Precipitation  
Precipitation 0.00 in - - ()
Sea Level Pressure  
Sea Level Pressure 30.20 in    
Wind  
Wind Speed 5 mph (East)    
Max Wind Speed 17 mph    
Max Gust Speed 20 mph    
Visibility 10 miles    
Events      
Averages and records for this station are not official NWS values.
T = Trace of Precipitation, MM = Missing Value Source: NWS Daily Summary

Daily Weather History Graph

Daily Weather History Graph

Search for Another Location

Airport:

Trip Planner

Search our weather history database for the weather conditions in past years. The results will help you decide how hot, cold, wet, or windy it might be!

Date:

Astronomy

Dec. 13, 2012 Rise Set
Actual Time 7:13 AM CST 5:40 PM CST
Civil Twilight 6:48 AM CST 6:05 PM CST
Nautical Twilight 6:19 AM CST 6:34 PM CST
Astronomical Twilight 5:50 AM CST 7:03 PM CST
Moon 7:25 AM CST (12/13) 6:22 PM CST (12/13)
Length of Visible Light 11h 17m
Length of Day
10h 26m
Waxing Crescent, 0% of the Moon is Illuminated
Dec 13
Waxing Crescent
Dec 19
First Quarter
Dec 28
Full
Jan 4
Last Quarter
Jan 11
New

Hourly Weather History & Observations

Time (CST) Temp. Dew Point Humidity Pressure Visibility Wind Dir Wind Speed Gust Speed Precip Events Conditions
12:15 AM 49.3 °F 42.3 °F 77% 30.25 in 10.0 mi North 3.5 mph - N/A   Clear
12:35 AM 49.1 °F 42.8 °F 79% 30.24 in 10.0 mi NNE 4.6 mph - N/A   Clear
12:55 AM 49.5 °F 42.8 °F 78% 30.24 in 10.0 mi NE 3.5 mph - N/A   Clear
1:15 AM 49.1 °F 42.8 °F 79% 30.23 in 10.0 mi NE 4.6 mph - N/A   Clear
1:35 AM 49.1 °F 42.8 °F 79% 30.23 in 10.0 mi NNE 4.6 mph - N/A   Clear
1:55 AM 48.6 °F 42.8 °F 80% 30.22 in 10.0 mi NNE 4.6 mph - N/A   Clear
2:15 AM 48.7 °F 42.8 °F 80% 30.22 in 10.0 mi Calm Calm - N/A   Clear
2:35 AM 48.4 °F 43.2 °F 82% 30.22 in 10.0 mi NNE 3.5 mph - N/A   Clear
2:55 AM 49.1 °F 43.7 °F 82% 30.22 in 10.0 mi NNE 4.6 mph - N/A   Clear
3:15 AM 49.1 °F 43.9 °F 82% 30.21 in 10.0 mi NNE 4.6 mph - N/A   Clear
3:35 AM 49.1 °F 44.6 °F 84% 30.21 in 10.0 mi NNE 4.6 mph - N/A   Clear
3:55 AM 49.5 °F 45.3 °F 86% 30.21 in 10.0 mi NNE 3.5 mph - N/A   Scattered Clouds
4:15 AM 51.1 °F 46.0 °F 83% 30.21 in 10.0 mi Calm Calm - N/A   Mostly Cloudy
4:35 AM 52.0 °F 46.6 °F 82% 30.21 in 10.0 mi Calm Calm - N/A   Overcast
5:15 AM 53.6 °F 47.3 °F 79% 30.22 in 10.0 mi Calm Calm - N/A   Overcast
5:35 AM 53.6 °F 46.9 °F 78% 30.22 in 10.0 mi Calm Calm - N/A   Overcast
5:55 AM 53.8 °F 46.8 °F 77% 30.23 in 10.0 mi Calm Calm - N/A   Overcast
6:15 AM 54.0 °F 46.8 °F 77% 30.23 in 10.0 mi North 4.6 mph - N/A   Overcast
6:35 AM 54.5 °F 46.9 °F 76% 30.23 in 10.0 mi Calm Calm - N/A   Overcast
6:55 AM 54.9 °F 47.3 °F 76% 30.23 in 10.0 mi NNE 3.5 mph - N/A   Overcast
7:15 AM 55.4 °F 47.5 °F 75% 30.23 in 10.0 mi NNE 4.6 mph - N/A   Overcast
7:35 AM 55.8 °F 47.7 °F 74% 30.24 in 10.0 mi NE 4.6 mph - N/A   Overcast
7:55 AM 56.3 °F 48.2 °F 74% 30.24 in 10.0 mi Calm Calm - N/A   Overcast
8:15 AM 56.8 °F 48.2 °F 73% 30.24 in 10.0 mi NE 5.8 mph - N/A   Overcast
8:35 AM 57.6 °F 48.7 °F 72% 30.25 in 10.0 mi NE 5.8 mph - N/A   Overcast
9:15 AM 59.5 °F 49.8 °F 70% 30.25 in 10.0 mi NE 3.5 mph - N/A   Overcast
9:35 AM 61.0 °F 50.7 °F 69% 30.26 in 10.0 mi ENE 4.6 mph - N/A   Overcast
9:55 AM 62.8 °F 51.3 °F 66% 30.26 in 10.0 mi ENE 5.8 mph - N/A   Overcast
10:15 AM 64.2 °F 52.0 °F 64% 30.25 in 10.0 mi ENE 5.8 mph - N/A   Overcast
10:35 AM 66.0 °F 52.5 °F 62% 30.25 in 10.0 mi East 8.1 mph - N/A   Overcast
11:15 AM 69.8 °F 54.5 °F 58% 30.24 in 10.0 mi East 9.2 mph - N/A   Overcast
11:35 AM 70.9 °F 54.9 °F 57% 30.23 in 10.0 mi East 11.5 mph 17.3 mph N/A   Overcast
11:55 AM 71.8 °F 54.7 °F 55% 30.23 in 10.0 mi East 15.0 mph 19.6 mph N/A   Overcast
12:15 PM 71.6 °F 54.5 °F 55% 30.23 in 10.0 mi East 11.5 mph 16.1 mph N/A   Overcast
12:35 PM 71.6 °F 54.5 °F 55% 30.22 in 10.0 mi East 13.8 mph - N/A   Overcast
12:55 PM 71.4 °F 54.9 °F 56% 30.21 in 10.0 mi East 15.0 mph 19.6 mph N/A   Overcast
1:15 PM 71.6 °F 54.7 °F 55% 30.19 in 10.0 mi ESE 10.4 mph - N/A   Overcast
1:55 PM 71.6 °F 55.2 °F 56% 30.17 in 10.0 mi ESE 17.3 mph - N/A   Overcast
2:15 PM 71.2 °F 55.4 °F 57% 30.16 in 10.0 mi SE 12.7 mph 16.1 mph N/A   Overcast
2:35 PM 71.1 °F 55.9 °F 59% 30.16 in 10.0 mi ESE 11.5 mph 17.3 mph N/A   Overcast
3:15 PM 71.6 °F 55.9 °F 58% 30.15 in 10.0 mi ESE 12.7 mph - N/A   Overcast
3:35 PM 71.6 °F 55.6 °F 57% 30.14 in 10.0 mi East 13.8 mph 18.4 mph N/A   Overcast
3:55 PM 71.6 °F 56.3 °F 58% 30.14 in 10.0 mi ESE 9.2 mph - N/A   Overcast
4:15 PM 71.6 °F 56.3 °F 58% 30.15 in 10.0 mi ESE 10.4 mph - N/A   Overcast
4:55 PM 71.2 °F 56.7 °F 60% 30.14 in 10.0 mi ESE 8.1 mph - N/A   Overcast
5:35 PM 71.1 °F 58.1 °F 63% 30.14 in 10.0 mi ESE 11.5 mph - N/A   Overcast
6:55 PM 70.3 °F 58.5 °F 66% 30.15 in 10.0 mi ESE 13.8 mph 19.6 mph N/A   Overcast
7:15 PM 70.2 °F 58.8 °F 67% 30.15 in 10.0 mi ESE 12.7 mph 18.4 mph N/A   Overcast
7:35 PM 70.3 °F 59.2 °F 68% 30.15 in 10.0 mi East 12.7 mph 18.4 mph N/A   Overcast
7:55 PM 70.2 °F 59.4 °F 69% 30.15 in 10.0 mi ESE 10.4 mph - N/A   Overcast
8:15 PM 70.0 °F 59.7 °F 70% 30.16 in 10.0 mi East 8.1 mph - N/A   Overcast
8:35 PM 70.0 °F 59.9 °F 70% 30.16 in 10.0 mi East 5.8 mph - N/A   Overcast
8:55 PM 69.8 °F 60.1 °F 71% 30.16 in 10.0 mi ESE 3.5 mph - N/A   Overcast
9:15 PM 69.8 °F 60.1 °F 71% 30.16 in 10.0 mi ESE 3.5 mph - N/A   Overcast
10:15 PM 70.3 °F 60.8 °F 72% 30.14 in 10.0 mi ESE 5.8 mph - N/A   Overcast
10:35 PM 70.7 °F 61.2 °F 72% 30.14 in 10.0 mi ESE 8.1 mph - N/A   Overcast
10:55 PM 70.7 °F 61.5 °F 73% 30.15 in 10.0 mi ESE 5.8 mph - N/A   Overcast
11:15 PM 70.7 °F 61.7 °F 73% 30.14 in 10.0 mi ESE 5.8 mph - N/A   Overcast
11:35 PM 70.7 °F 62.1 °F 74% 30.14 in 10.0 mi ESE 5.8 mph - N/A   Overcast
11:55 PM 70.7 °F 62.2 °F 75% 30.13 in 10.0 mi ESE 6.9 mph - N/A   Overcast